timeStamp;value
06.06.2019 12:00;12.2
06.06.2019 13:00;12.2
06.06.2019 14:00;12.2
06.06.2019 15:00;12.2
06.06.2019 16:00;12.2
06.06.2019 17:00;12.2
06.06.2019 18:00;12.18
06.06.2019 19:00;12.18
06.06.2019 20:00;12.18
06.06.2019 21:00;12.17
06.06.2019 22:00;12.17
06.06.2019 23:00;12.17
07.06.2019 00:00;12.17
07.06.2019 01:00;12.2
07.06.2019 02:00;12.18
07.06.2019 03:00;12.2
07.06.2019 04:00;12.2
07.06.2019 05:00;12.2
07.06.2019 06:00;12.2
07.06.2019 07:00;12.2
07.06.2019 08:00;12.2
07.06.2019 09:00;12.2
07.06.2019 10:00;12.2
07.06.2019 11:00;12.18
07.06.2019 12:00;12.18
07.06.2019 13:00;12.17
07.06.2019 14:00;12.17
07.06.2019 15:00;12.17
07.06.2019 16:00;12.17
07.06.2019 17:00;12.17
07.06.2019 18:00;12.17
07.06.2019 19:00;12.17
07.06.2019 20:00;12.17
07.06.2019 21:00;12.18
07.06.2019 22:00;12.17
07.06.2019 23:00;12.17
08.06.2019 00:00;12.18
08.06.2019 01:00;12.2
08.06.2019 02:00;12.2
08.06.2019 03:00;12.2
08.06.2019 04:00;12.2
08.06.2019 05:00;12.2
08.06.2019 06:00;12.2
08.06.2019 07:00;12.19
08.06.2019 08:00;12.2
08.06.2019 09:00;12.2
08.06.2019 10:00;12.2
08.06.2019 11:00;12.18
08.06.2019 12:00;12.2
08.06.2019 13:00;12.18
08.06.2019 14:00;12.17
08.06.2019 15:00;12.18
08.06.2019 16:00;12.18
08.06.2019 17:00;12.16
08.06.2019 18:00;12.18
08.06.2019 19:00;12.16
08.06.2019 20:00;12.18
08.06.2019 21:00;12.17
08.06.2019 22:00;12.16
08.06.2019 23:00;12.18
09.06.2019 00:00;12.17
09.06.2019 01:00;12.17
09.06.2019 02:00;12.17
09.06.2019 03:00;12.17
09.06.2019 04:00;12.16
09.06.2019 05:00;12.17
09.06.2019 06:00;12.16
09.06.2019 07:00;12.16
09.06.2019 08:00;12.16
09.06.2019 09:00;12.16
09.06.2019 10:00;12.17
09.06.2019 11:00;12.17
09.06.2019 12:00;12.17
09.06.2019 13:00;12.17
09.06.2019 14:00;12.17
09.06.2019 15:00;12.18
09.06.2019 16:00;12.18
09.06.2019 17:00;12.18
09.06.2019 18:00;12.2
09.06.2019 19:00;12.17
09.06.2019 20:00;12.17
09.06.2019 21:00;12.17
09.06.2019 22:00;12.17
09.06.2019 23:00;12.17
10.06.2019 00:00;12.17
10.06.2019 01:00;12.17
10.06.2019 02:00;12.17
10.06.2019 03:00;12.17
10.06.2019 04:00;12.18
10.06.2019 05:00;12.17
10.06.2019 06:00;12.2
10.06.2019 07:00;12.2
10.06.2019 08:00;12.16
10.06.2019 09:00;12.2
10.06.2019 10:00;12.2
10.06.2019 11:00;12.2
10.06.2019 12:00;12.2
10.06.2019 14:00;12.2
10.06.2019 15:00;12.2
10.06.2019 16:00;12.2
10.06.2019 17:00;12.2
10.06.2019 18:00;12.2
10.06.2019 19:00;12.2
10.06.2019 20:00;12.2
10.06.2019 21:00;12.2
10.06.2019 22:00;12.22
10.06.2019 23:00;12.2
11.06.2019 00:00;12.2
11.06.2019 01:00;12.18
11.06.2019 02:00;12.2
11.06.2019 03:00;12.2
11.06.2019 04:00;12.2
11.06.2019 05:00;12.2
11.06.2019 06:00;12.2
11.06.2019 07:00;12.2
11.06.2019 08:00;12.2
11.06.2019 09:00;12.2
11.06.2019 10:00;12.2
11.06.2019 11:00;12.2
11.06.2019 12:00;12.23
11.06.2019 13:00;12.23
11.06.2019 14:00;12.22
11.06.2019 15:00;12.23
11.06.2019 16:00;12.22
11.06.2019 17:00;12.23
11.06.2019 18:00;12.23
11.06.2019 19:00;12.23
11.06.2019 20:00;12.23
11.06.2019 21:00;12.23
11.06.2019 22:00;12.24
11.06.2019 23:00;12.23
12.06.2019 00:00;12.24
12.06.2019 01:00;12.24
12.06.2019 02:00;12.24
12.06.2019 03:00;12.24
12.06.2019 04:00;12.24
12.06.2019 05:00;12.24
12.06.2019 06:00;12.24
12.06.2019 07:00;12.24
12.06.2019 08:00;12.24
12.06.2019 09:00;12.24
12.06.2019 10:00;12.24
12.06.2019 11:00;12.24
12.06.2019 12:00;12.24
12.06.2019 13:00;12.24
12.06.2019 14:00;12.24
12.06.2019 15:00;12.24
12.06.2019 16:00;12.24
12.06.2019 17:00;12.25
12.06.2019 18:00;12.25
12.06.2019 19:00;12.24
12.06.2019 20:00;12.23
12.06.2019 21:00;12.24
12.06.2019 22:00;12.24
12.06.2019 23:00;12.24
13.06.2019 00:00;12.24
13.06.2019 01:00;12.24
13.06.2019 02:00;12.24
13.06.2019 03:00;12.24
13.06.2019 04:00;12.23
13.06.2019 05:00;12.24
13.06.2019 06:00;12.24
13.06.2019 07:00;12.24
13.06.2019 08:00;12.24
13.06.2019 09:00;12.24
13.06.2019 10:00;12.24
13.06.2019 11:00;12.24
13.06.2019 12:00;12.24
13.06.2019 13:00;12.24
13.06.2019 14:00;12.24
13.06.2019 15:00;12.24
13.06.2019 16:00;12.23
13.06.2019 17:00;12.23
13.06.2019 18:00;12.24
13.06.2019 19:00;12.24
13.06.2019 20:00;12.24
13.06.2019 21:00;12.24
13.06.2019 22:00;12.22
13.06.2019 23:00;12.21
14.06.2019 00:00;12.22
14.06.2019 01:00;12.22
14.06.2019 02:00;12.23
14.06.2019 03:00;12.22
14.06.2019 04:00;12.24
14.06.2019 05:00;12.24
14.06.2019 06:00;12.24
14.06.2019 07:00;12.24
14.06.2019 08:00;12.24
14.06.2019 09:00;12.24
14.06.2019 10:00;12.24
14.06.2019 11:00;12.24
14.06.2019 12:00;12.24
14.06.2019 13:00;12.24
14.06.2019 14:00;12.24
14.06.2019 15:00;12.24
14.06.2019 16:00;12.24
14.06.2019 17:00;12.24
14.06.2019 18:00;12.24
14.06.2019 19:00;12.24
14.06.2019 20:00;12.24
14.06.2019 21:00;12.25
14.06.2019 22:00;12.24
14.06.2019 23:00;12.25
15.06.2019 00:00;12.25
15.06.2019 01:00;12.24
15.06.2019 02:00;12.27
15.06.2019 03:00;12.27
15.06.2019 04:00;12.27
15.06.2019 05:00;12.27
15.06.2019 06:00;12.27
15.06.2019 07:00;12.27
15.06.2019 08:00;12.27
15.06.2019 09:00;12.27
15.06.2019 10:00;12.25
15.06.2019 11:00;12.27
15.06.2019 12:00;12.27
15.06.2019 13:00;12.27
15.06.2019 14:00;12.27
15.06.2019 15:00;12.27
15.06.2019 16:00;12.27
15.06.2019 17:00;12.27
15.06.2019 18:00;12.27
15.06.2019 19:00;12.25
15.06.2019 20:00;12.25
15.06.2019 21:00;12.24
15.06.2019 22:00;12.25
15.06.2019 23:00;12.25
16.06.2019 00:00;12.24
16.06.2019 01:00;12.27
16.06.2019 02:00;12.27
16.06.2019 03:00;12.27
16.06.2019 04:00;12.27
16.06.2019 05:00;12.27
16.06.2019 06:00;12.27
16.06.2019 07:00;12.27
16.06.2019 08:00;12.27
16.06.2019 09:00;12.27
16.06.2019 10:00;12.27
16.06.2019 11:00;12.27
16.06.2019 12:00;12.27
16.06.2019 13:00;12.27
16.06.2019 14:00;12.27
16.06.2019 15:00;12.27
16.06.2019 16:00;12.27
16.06.2019 17:00;12.27
16.06.2019 18:00;12.27
16.06.2019 19:00;12.27
16.06.2019 20:00;12.27
16.06.2019 21:00;12.27
16.06.2019 22:00;12.27
16.06.2019 23:00;12.27
17.06.2019 00:00;12.27
17.06.2019 01:00;12.27
17.06.2019 02:00;12.25
17.06.2019 03:00;12.25
17.06.2019 04:00;12.25
17.06.2019 05:00;12.25
17.06.2019 06:00;12.25
17.06.2019 07:00;12.24
17.06.2019 08:00;12.25
17.06.2019 09:00;12.24
17.06.2019 10:00;12.24
17.06.2019 11:00;12.24
17.06.2019 12:00;12.25
17.06.2019 13:00;12.24
17.06.2019 14:00;12.24
17.06.2019 15:00;12.25
17.06.2019 16:00;12.24
17.06.2019 17:00;12.24
17.06.2019 18:00;12.25
17.06.2019 19:00;12.24
17.06.2019 20:00;12.25
17.06.2019 21:00;12.25
17.06.2019 22:00;12.25
17.06.2019 23:00;12.27
18.06.2019 00:00;12.27
18.06.2019 01:00;12.27
18.06.2019 02:00;12.27
18.06.2019 03:00;12.27
18.06.2019 04:00;12.27
18.06.2019 05:00;12.27
18.06.2019 06:00;12.27
18.06.2019 07:00;12.27
18.06.2019 08:00;12.27
18.06.2019 09:00;12.27
18.06.2019 10:00;12.27
18.06.2019 11:00;12.27
18.06.2019 12:00;12.27
18.06.2019 13:00;12.27
18.06.2019 14:00;12.27
18.06.2019 15:00;12.27
18.06.2019 16:00;12.27
18.06.2019 17:00;12.27
18.06.2019 18:00;12.27
18.06.2019 19:00;12.27
18.06.2019 20:00;12.27
18.06.2019 21:00;12.27
18.06.2019 22:00;12.27
18.06.2019 23:00;12.27
19.06.2019 00:00;12.27
19.06.2019 01:00;12.27
19.06.2019 02:00;12.27
19.06.2019 03:00;12.27
19.06.2019 04:00;12.27
19.06.2019 05:00;12.27
19.06.2019 06:00;12.25
19.06.2019 07:00;12.27
19.06.2019 08:00;12.27
19.06.2019 09:00;12.27
19.06.2019 10:00;12.27
19.06.2019 11:00;12.27
19.06.2019 12:00;12.27
19.06.2019 13:00;12.27
19.06.2019 13:01;12.27
19.06.2019 14:00;12.27
19.06.2019 15:00;12.25
19.06.2019 16:00;12.27
19.06.2019 17:00;12.27
19.06.2019 18:00;12.27
19.06.2019 19:00;12.27
19.06.2019 20:00;12.27
19.06.2019 21:00;12.27
19.06.2019 22:00;12.27
19.06.2019 23:00;12.27
20.06.2019 00:00;12.27
20.06.2019 01:00;12.27
20.06.2019 02:00;12.27
20.06.2019 03:00;12.27
20.06.2019 04:00;12.27
20.06.2019 05:00;12.27
20.06.2019 06:00;12.27
20.06.2019 07:00;12.27
20.06.2019 08:00;12.27
20.06.2019 09:00;12.27
20.06.2019 10:00;12.27
20.06.2019 11:00;12.27
20.06.2019 12:00;12.25
20.06.2019 13:00;12.25
20.06.2019 14:00;12.24
20.06.2019 15:00;12.24
20.06.2019 16:00;12.24
20.06.2019 17:00;12.24
20.06.2019 18:00;12.24
20.06.2019 19:00;12.24
20.06.2019 20:00;12.24
20.06.2019 21:00;12.24
20.06.2019 22:00;12.24
20.06.2019 23:00;12.24
21.06.2019 00:00;12.25
21.06.2019 01:00;12.25
21.06.2019 02:00;12.25
21.06.2019 03:00;12.27
21.06.2019 04:00;12.27
21.06.2019 05:00;12.27
21.06.2019 06:00;12.25
21.06.2019 07:00;12.27
21.06.2019 08:00;12.25
21.06.2019 09:00;12.25
21.06.2019 10:00;12.27
21.06.2019 11:00;12.25
21.06.2019 12:00;12.24
21.06.2019 13:00;12.25
21.06.2019 14:00;12.27
21.06.2019 15:00;12.27
21.06.2019 16:00;12.26
21.06.2019 17:00;12.27
21.06.2019 18:00;12.27
21.06.2019 19:00;12.27
21.06.2019 20:00;12.27
21.06.2019 21:00;12.27
21.06.2019 22:00;12.27
21.06.2019 23:00;12.27
22.06.2019 00:00;12.27
22.06.2019 01:00;12.27
22.06.2019 02:00;12.27
22.06.2019 03:00;12.27
22.06.2019 04:00;12.27
22.06.2019 05:00;12.27
22.06.2019 06:00;12.27
22.06.2019 07:00;12.27
22.06.2019 08:00;12.27
22.06.2019 09:00;12.27
22.06.2019 10:00;12.27
22.06.2019 11:00;12.27
22.06.2019 12:00;12.27
22.06.2019 13:00;12.27
22.06.2019 14:00;12.27
22.06.2019 15:00;12.27
22.06.2019 16:00;12.27
22.06.2019 17:00;12.29
22.06.2019 18:00;12.27
22.06.2019 19:00;12.29
22.06.2019 20:00;12.29
22.06.2019 21:00;12.29
22.06.2019 22:00;12.29
22.06.2019 23:00;12.29
23.06.2019 00:00;12.29
23.06.2019 01:00;12.29
23.06.2019 02:00;12.29
23.06.2019 03:00;12.29
23.06.2019 04:00;12.27
23.06.2019 05:00;12.27
23.06.2019 06:00;12.27
23.06.2019 07:00;12.29
23.06.2019 08:00;12.27
23.06.2019 09:00;12.29
23.06.2019 10:00;12.26
23.06.2019 11:00;12.29
23.06.2019 12:00;12.29
23.06.2019 13:00;12.29
23.06.2019 14:00;12.29
23.06.2019 15:00;12.29
23.06.2019 16:00;12.29
23.06.2019 17:00;12.29
23.06.2019 18:00;12.29
23.06.2019 19:00;12.29
23.06.2019 20:00;12.29
23.06.2019 21:00;12.29
23.06.2019 22:00;12.29
23.06.2019 23:00;12.29
24.06.2019 00:00;12.29
24.06.2019 01:00;12.27
24.06.2019 02:00;12.29
24.06.2019 03:00;12.29
24.06.2019 04:00;12.29
24.06.2019 05:00;12.29
24.06.2019 06:00;12.29
24.06.2019 07:00;12.29
24.06.2019 08:00;12.29
24.06.2019 09:00;12.29
24.06.2019 10:00;12.29
24.06.2019 11:00;12.29
24.06.2019 12:00;12.29
24.06.2019 13:00;12.29
24.06.2019 14:00;12.27
24.06.2019 15:00;12.29
24.06.2019 16:00;12.29
24.06.2019 17:00;12.29
24.06.2019 18:00;12.29
24.06.2019 19:00;12.29
24.06.2019 20:00;12.29
24.06.2019 21:00;12.29
24.06.2019 22:00;12.29
24.06.2019 23:00;12.29
25.06.2019 00:00;12.29
25.06.2019 01:00;12.29
25.06.2019 02:00;12.29
25.06.2019 03:00;12.29
25.06.2019 04:00;12.29
25.06.2019 05:00;12.29
25.06.2019 06:00;12.29
25.06.2019 07:00;12.29
25.06.2019 08:00;12.29
25.06.2019 09:00;12.29
25.06.2019 10:00;12.29
25.06.2019 11:00;12.29
25.06.2019 12:00;12.29
25.06.2019 13:00;12.29
25.06.2019 14:00;12.29
25.06.2019 15:00;12.29
25.06.2019 16:00;12.29
25.06.2019 17:00;12.29
25.06.2019 18:00;12.3
25.06.2019 19:00;12.29
25.06.2019 20:00;12.3
25.06.2019 21:00;12.3
25.06.2019 22:00;12.3
25.06.2019 23:00;12.3
26.06.2019 00:00;12.29
26.06.2019 01:00;12.3
26.06.2019 02:00;12.3
26.06.2019 03:00;12.29
26.06.2019 04:00;12.3
26.06.2019 05:00;12.3
26.06.2019 06:00;12.31
26.06.2019 07:00;12.3
26.06.2019 08:00;12.31
26.06.2019 09:00;12.3
26.06.2019 10:00;12.31
26.06.2019 11:00;12.3
26.06.2019 12:00;12.3
26.06.2019 13:00;12.3
26.06.2019 14:00;12.3
26.06.2019 15:00;12.3
26.06.2019 16:00;12.3
26.06.2019 17:00;12.3
26.06.2019 18:00;12.3
26.06.2019 19:00;12.3
26.06.2019 20:00;12.31
26.06.2019 21:00;12.31
26.06.2019 22:00;12.31
26.06.2019 23:00;12.31
27.06.2019 00:00;12.31
27.06.2019 01:00;12.31
27.06.2019 02:00;12.31
27.06.2019 03:00;12.3
27.06.2019 04:00;12.31
27.06.2019 05:00;12.3
27.06.2019 06:00;12.3
27.06.2019 07:00;12.31
27.06.2019 08:00;12.31
27.06.2019 09:00;12.3
27.06.2019 10:00;12.31
27.06.2019 11:00;12.31
27.06.2019 12:00;12.31
27.06.2019 13:00;12.31
27.06.2019 14:00;12.31
27.06.2019 15:00;12.31
27.06.2019 16:00;12.31
27.06.2019 17:00;12.31
27.06.2019 18:00;12.31
27.06.2019 19:00;12.31
27.06.2019 20:00;12.31
27.06.2019 21:00;12.31
27.06.2019 22:00;12.31
27.06.2019 23:00;12.31
28.06.2019 00:00;12.31
28.06.2019 01:00;12.31
28.06.2019 02:00;12.31
28.06.2019 03:00;12.31
28.06.2019 04:00;12.31
28.06.2019 05:00;12.31
28.06.2019 06:00;12.31
28.06.2019 07:00;12.31
28.06.2019 08:00;12.31
28.06.2019 09:00;12.31
28.06.2019 10:00;12.31
28.06.2019 11:00;12.31
28.06.2019 12:00;12.31
28.06.2019 13:00;12.32
28.06.2019 14:00;12.31
28.06.2019 15:00;12.3
28.06.2019 16:00;12.31
28.06.2019 17:00;12.31
28.06.2019 18:00;12.31
28.06.2019 19:00;12.32
28.06.2019 20:00;12.32
28.06.2019 21:00;12.31
28.06.2019 22:00;12.31
28.06.2019 23:00;12.31
29.06.2019 00:00;12.32
29.06.2019 01:00;12.32
29.06.2019 02:00;12.31
29.06.2019 03:00;12.31
29.06.2019 04:00;12.32
29.06.2019 05:00;12.32
29.06.2019 06:00;12.32
29.06.2019 07:00;12.34
29.06.2019 08:00;12.34
29.06.2019 09:00;12.34
29.06.2019 10:00;12.34
29.06.2019 11:00;12.34
29.06.2019 12:00;12.34
29.06.2019 13:00;12.34
29.06.2019 14:00;12.34
29.06.2019 15:00;12.34
29.06.2019 16:00;12.34
29.06.2019 17:00;12.34
29.06.2019 18:00;12.34
29.06.2019 19:00;12.34
29.06.2019 20:00;12.34
29.06.2019 21:00;12.34
29.06.2019 22:00;12.34
29.06.2019 23:00;12.34
30.06.2019 00:00;12.34
30.06.2019 01:00;12.34
30.06.2019 02:00;12.33
30.06.2019 03:00;12.34
30.06.2019 04:00;12.34
30.06.2019 05:00;12.34
30.06.2019 06:00;12.34
30.06.2019 07:00;12.34
30.06.2019 08:00;12.34
30.06.2019 09:00;12.34
30.06.2019 10:00;12.34
30.06.2019 11:00;12.34
30.06.2019 12:00;12.34
30.06.2019 13:00;12.34
30.06.2019 14:00;12.34
30.06.2019 15:00;12.34
30.06.2019 16:00;12.34
30.06.2019 17:00;12.34
30.06.2019 18:00;12.36
30.06.2019 19:00;12.36
30.06.2019 20:00;12.36
30.06.2019 21:00;12.36
30.06.2019 22:00;12.36
30.06.2019 23:00;12.34
01.07.2019 00:00;12.36
01.07.2019 01:00;12.34
01.07.2019 02:00;12.36
01.07.2019 03:00;12.36
01.07.2019 04:00;12.36
01.07.2019 05:00;12.36
01.07.2019 06:00;12.36
01.07.2019 07:00;12.36
01.07.2019 08:00;12.36
01.07.2019 09:00;12.36
01.07.2019 10:00;12.36
01.07.2019 11:00;12.36
01.07.2019 12:00;12.36
01.07.2019 13:00;12.36
01.07.2019 14:00;12.36
01.07.2019 15:00;12.36
01.07.2019 16:00;12.36
01.07.2019 17:00;12.36
01.07.2019 18:00;12.36
01.07.2019 19:00;12.36
01.07.2019 20:00;12.36
01.07.2019 21:00;12.36
01.07.2019 22:00;12.36
01.07.2019 23:00;12.36
02.07.2019 00:00;12.34
02.07.2019 01:00;12.34
02.07.2019 02:00;12.36
02.07.2019 03:00;12.36
02.07.2019 04:00;12.36
02.07.2019 05:00;12.36
02.07.2019 06:00;12.36
02.07.2019 07:00;12.36
02.07.2019 08:00;12.36
02.07.2019 09:00;12.36
02.07.2019 10:00;12.36
02.07.2019 11:00;12.36
02.07.2019 12:00;12.36
02.07.2019 13:00;12.36
02.07.2019 14:00;12.36
02.07.2019 15:00;12.36
02.07.2019 16:00;12.36
02.07.2019 17:00;12.37
02.07.2019 18:00;12.36
02.07.2019 19:00;12.37
02.07.2019 20:00;12.37
02.07.2019 21:00;12.36
02.07.2019 22:00;12.37
02.07.2019 23:00;12.37
03.07.2019 00:00;12.36
03.07.2019 01:00;12.36
03.07.2019 02:00;12.37
03.07.2019 03:00;12.36
03.07.2019 04:00;12.37
03.07.2019 05:00;12.36
03.07.2019 06:00;12.36
03.07.2019 07:00;12.36
03.07.2019 08:00;12.36
03.07.2019 09:00;12.36
03.07.2019 10:00;12.36
03.07.2019 11:00;12.37
03.07.2019 12:00;12.37
03.07.2019 13:00;12.36
03.07.2019 14:00;12.36
03.07.2019 15:00;12.37
03.07.2019 16:00;12.37
03.07.2019 17:00;12.37
03.07.2019 18:00;12.35
03.07.2019 19:00;12.37
03.07.2019 20:00;12.37
03.07.2019 21:00;12.37
03.07.2019 23:00;12.37
04.07.2019 00:00;12.37
04.07.2019 01:00;12.38
04.07.2019 02:00;12.37
04.07.2019 03:00;12.37
04.07.2019 04:00;12.37
04.07.2019 05:00;12.38
04.07.2019 06:00;12.37
04.07.2019 07:00;12.37
04.07.2019 08:00;12.38
04.07.2019 09:00;12.37
04.07.2019 10:00;12.37
04.07.2019 11:00;12.38
04.07.2019 12:00;12.38
04.07.2019 13:00;12.37
04.07.2019 14:00;12.37
04.07.2019 15:00;12.37
04.07.2019 16:00;12.38
04.07.2019 17:00;12.37
04.07.2019 18:00;12.38
04.07.2019 19:00;12.38
04.07.2019 20:00;12.37
04.07.2019 21:00;12.37
04.07.2019 22:00;12.37
04.07.2019 23:00;12.37
05.07.2019 00:00;12.36
05.07.2019 01:00;12.37
05.07.2019 02:00;12.37
05.07.2019 03:00;12.37
05.07.2019 04:00;12.37
05.07.2019 05:00;12.37
05.07.2019 06:00;12.37
05.07.2019 07:00;12.38
05.07.2019 08:00;12.37
05.07.2019 09:00;12.38
05.07.2019 10:00;12.38
05.07.2019 11:00;12.38
05.07.2019 12:00;12.38
05.07.2019 13:00;12.38
05.07.2019 14:00;12.37
05.07.2019 15:00;12.38
05.07.2019 16:00;12.38
05.07.2019 17:00;12.38
05.07.2019 18:00;12.38
05.07.2019 19:00;12.38
05.07.2019 20:00;12.37
05.07.2019 21:00;12.37
05.07.2019 22:00;12.38
05.07.2019 23:00;12.38
06.07.2019 00:00;12.37
06.07.2019 01:00;12.37
06.07.2019 02:00;12.36
06.07.2019 03:00;12.37
06.07.2019 04:00;12.38
06.07.2019 05:00;12.38
06.07.2019 06:00;12.38
06.07.2019 07:00;12.38
06.07.2019 08:00;12.37
06.07.2019 09:00;12.38
06.07.2019 10:00;12.38
06.07.2019 11:00;12.38
06.07.2019 12:00;12.38
06.07.2019 13:00;12.38
06.07.2019 14:00;12.38
06.07.2019 15:00;12.38
06.07.2019 16:00;12.38
06.07.2019 17:00;12.38
06.07.2019 18:00;12.38
06.07.2019 19:00;12.38
06.07.2019 20:00;12.38
06.07.2019 21:00;12.38
06.07.2019 22:00;12.38
06.07.2019 23:00;12.38
07.07.2019 00:00;12.38
07.07.2019 01:00;12.38
07.07.2019 02:00;12.38
07.07.2019 03:00;12.38
07.07.2019 04:00;12.38
07.07.2019 05:00;12.38
07.07.2019 06:00;12.38
07.07.2019 07:00;12.38
07.07.2019 08:00;12.38
07.07.2019 09:00;12.38
07.07.2019 10:00;12.38
07.07.2019 11:00;12.38
07.07.2019 12:00;12.39
07.07.2019 13:00;12.39
07.07.2019 14:00;12.39
07.07.2019 15:00;12.38
07.07.2019 16:00;12.38
07.07.2019 17:00;12.39
07.07.2019 18:00;12.39
07.07.2019 19:00;12.38
07.07.2019 20:00;12.38
07.07.2019 21:00;12.39
07.07.2019 22:00;12.38
07.07.2019 23:00;12.39
08.07.2019 00:00;12.39
08.07.2019 01:00;12.39
08.07.2019 02:00;12.39
08.07.2019 03:00;12.39
08.07.2019 04:00;12.38
08.07.2019 05:00;12.38
08.07.2019 06:00;12.37
08.07.2019 07:00;12.39
08.07.2019 08:00;12.39
08.07.2019 09:00;12.41
08.07.2019 10:00;12.41
08.07.2019 11:00;12.39
08.07.2019 12:00;12.41
08.07.2019 13:00;12.41
08.07.2019 14:00;12.41
08.07.2019 15:00;12.41
08.07.2019 16:00;12.39
08.07.2019 17:00;12.41
08.07.2019 18:00;12.39
08.07.2019 19:00;12.41
08.07.2019 20:00;12.41
08.07.2019 21:00;12.41
08.07.2019 22:00;12.41
08.07.2019 23:00;12.41
09.07.2019 00:00;12.41
09.07.2019 01:00;12.41
09.07.2019 02:00;12.41
09.07.2019 03:00;12.41
09.07.2019 04:00;12.41
09.07.2019 05:00;12.41
09.07.2019 06:00;12.41
09.07.2019 07:00;12.41
09.07.2019 08:00;12.41
09.07.2019 09:00;12.41
09.07.2019 10:00;12.41
09.07.2019 11:00;12.39
09.07.2019 12:00;12.41
09.07.2019 13:00;12.41
09.07.2019 14:00;12.39
09.07.2019 15:00;12.41
09.07.2019 16:00;12.41
09.07.2019 17:00;12.41
09.07.2019 18:00;12.41
09.07.2019 19:00;12.41
09.07.2019 20:00;12.41
09.07.2019 21:00;12.41
09.07.2019 22:00;12.41
09.07.2019 23:00;12.38
10.07.2019 00:00;12.42
10.07.2019 01:00;12.41
10.07.2019 02:00;12.41
10.07.2019 03:00;12.41
10.07.2019 04:00;12.41
10.07.2019 05:00;12.41
10.07.2019 06:00;12.41
10.07.2019 07:00;12.41
10.07.2019 08:00;12.41
10.07.2019 09:00;12.41
10.07.2019 10:00;12.41
10.07.2019 11:00;12.41
10.07.2019 12:00;12.39
10.07.2019 13:00;12.41
10.07.2019 14:00;12.41
10.07.2019 15:00;12.41
10.07.2019 16:00;12.41
10.07.2019 17:00;12.41
10.07.2019 18:00;12.39
10.07.2019 19:00;12.41
10.07.2019 20:00;12.41
10.07.2019 21:00;12.41
10.07.2019 22:00;12.41
10.07.2019 23:00;12.41
11.07.2019 00:00;12.41
11.07.2019 01:00;12.41
11.07.2019 02:00;12.41
11.07.2019 03:00;12.41
11.07.2019 04:00;12.41
11.07.2019 05:00;12.41
11.07.2019 06:00;12.41
11.07.2019 07:00;12.41
11.07.2019 08:00;12.41
11.07.2019 09:00;12.41
11.07.2019 10:00;12.41
11.07.2019 11:00;12.41
11.07.2019 12:00;12.41
11.07.2019 13:00;12.41
11.07.2019 14:00;12.41
11.07.2019 15:00;12.41
11.07.2019 16:00;12.41
11.07.2019 17:00;12.41
11.07.2019 18:00;12.41
11.07.2019 19:00;12.41
11.07.2019 20:00;12.41
11.07.2019 21:00;12.41
11.07.2019 22:00;12.41
11.07.2019 23:00;12.41
12.07.2019 00:00;12.41
12.07.2019 01:00;12.41
12.07.2019 02:00;12.41
12.07.2019 03:00;12.41
12.07.2019 04:00;12.41
12.07.2019 05:00;12.41
12.07.2019 06:00;12.41
12.07.2019 07:00;12.41
12.07.2019 08:00;12.41
12.07.2019 09:00;12.41
12.07.2019 10:00;12.41
12.07.2019 11:00;12.41
12.07.2019 12:00;12.41
12.07.2019 13:00;12.41
12.07.2019 14:00;12.42
12.07.2019 15:00;12.41
12.07.2019 16:00;12.42
12.07.2019 17:00;12.42
12.07.2019 18:00;12.41
12.07.2019 19:00;12.41
12.07.2019 20:00;12.41
12.07.2019 21:00;12.42
12.07.2019 22:00;12.41
12.07.2019 23:00;12.41
13.07.2019 00:00;12.41
13.07.2019 01:00;12.42
13.07.2019 02:00;12.42
13.07.2019 03:00;12.41
13.07.2019 04:00;12.42
13.07.2019 05:00;12.42
13.07.2019 06:00;12.43
13.07.2019 07:00;12.42
13.07.2019 08:00;12.42
13.07.2019 09:00;12.42
13.07.2019 10:00;12.41
13.07.2019 11:00;12.42
13.07.2019 12:00;12.42
13.07.2019 13:00;12.42
13.07.2019 14:00;12.42
13.07.2019 15:00;12.41
13.07.2019 16:00;12.41
13.07.2019 17:00;12.42
13.07.2019 18:00;12.4
13.07.2019 19:00;12.41
13.07.2019 20:00;12.41
13.07.2019 21:00;12.41
13.07.2019 22:00;12.41
13.07.2019 23:00;12.41
14.07.2019 01:00;12.41
14.07.2019 02:00;12.41
14.07.2019 03:00;12.41
14.07.2019 04:00;12.41
14.07.2019 05:00;12.41
14.07.2019 06:00;12.41
14.07.2019 07:00;12.41
14.07.2019 08:00;12.41
14.07.2019 09:00;12.41
14.07.2019 11:00;12.41
14.07.2019 12:00;12.41
14.07.2019 13:00;12.41
14.07.2019 14:00;12.41
14.07.2019 15:00;12.42
14.07.2019 16:00;12.41
14.07.2019 17:00;12.42
14.07.2019 18:00;12.42
14.07.2019 19:00;12.43
14.07.2019 20:00;12.43
14.07.2019 21:00;12.43
14.07.2019 22:00;12.43
14.07.2019 23:00;12.42
15.07.2019 00:00;12.42
15.07.2019 01:00;12.42
15.07.2019 02:00;12.41
15.07.2019 03:00;12.41
15.07.2019 04:00;12.41
15.07.2019 05:00;12.41
15.07.2019 06:00;12.41
15.07.2019 07:00;12.41
15.07.2019 08:00;12.41
15.07.2019 09:00;12.41
15.07.2019 10:00;12.41
15.07.2019 11:00;12.41
15.07.2019 12:00;12.41
15.07.2019 13:00;12.41
15.07.2019 14:00;12.41
15.07.2019 15:00;12.4
15.07.2019 16:00;12.41
15.07.2019 17:00;12.41
15.07.2019 18:00;12.41
15.07.2019 19:00;12.41
15.07.2019 20:00;12.41
15.07.2019 21:00;12.41
15.07.2019 22:00;12.41
15.07.2019 23:00;12.41
16.07.2019 00:00;12.41
16.07.2019 01:00;12.41
16.07.2019 02:00;12.41
16.07.2019 03:00;12.41
16.07.2019 04:00;12.41
16.07.2019 06:00;12.41
16.07.2019 07:00;12.41
16.07.2019 08:00;12.41
16.07.2019 09:00;12.41
16.07.2019 10:00;12.41
16.07.2019 11:00;12.41
16.07.2019 12:00;12.41
16.07.2019 13:00;12.41
16.07.2019 14:00;12.41
16.07.2019 15:00;12.41
16.07.2019 16:00;12.41
16.07.2019 17:00;12.41
16.07.2019 18:00;12.41
16.07.2019 19:00;12.41
16.07.2019 20:00;12.41
16.07.2019 21:00;12.41
16.07.2019 22:00;12.41
16.07.2019 23:00;12.41
17.07.2019 00:00;12.41
17.07.2019 01:00;12.41
17.07.2019 02:00;12.42
17.07.2019 03:00;12.42
17.07.2019 04:00;12.41
17.07.2019 05:00;12.41
17.07.2019 06:00;12.41
17.07.2019 07:00;12.41
17.07.2019 08:00;12.39
17.07.2019 09:00;12.42
17.07.2019 10:00;12.41
17.07.2019 11:00;12.41
17.07.2019 12:00;12.42
17.07.2019 13:00;12.42
17.07.2019 14:00;12.42
17.07.2019 15:00;12.41
17.07.2019 16:00;12.41
17.07.2019 17:00;12.42
17.07.2019 18:00;12.42
17.07.2019 19:00;12.41
17.07.2019 20:00;12.41
17.07.2019 21:00;12.42
17.07.2019 22:00;12.42
17.07.2019 23:00;12.42
18.07.2019 00:00;12.42
18.07.2019 01:00;12.42
18.07.2019 02:00;12.42
18.07.2019 03:00;12.42
18.07.2019 04:00;12.42
18.07.2019 05:00;12.42
18.07.2019 06:00;12.42
18.07.2019 07:00;12.42
18.07.2019 08:00;12.42
18.07.2019 09:00;12.42